Regional Weather Roundup
Issued by NWS Midland/Odessa, TX

Skip options and go directly to product.
Home | Oldest Version | Previous Version | Current Version | All | Graphics & Text | Save Text | Print | Product List | Glossary On

Skip product version selection by date and time.   
708
ASUS44 KMAF 011810
RWRMAF
MIDLAND AREA WEATHER ROUNDUP
NATIONAL WEATHER SERVICE MIDLAND TX
100 PM CDT FRI JUL 01 2016

...IN SOUTHWEST TEXAS AND SOUTHEAST NEW MEXICO...

CITY           SKY/WX    TMP DP  RH WIND       PRES   REMARKS
ALPINE         PTSUNNY   84  55  36 S6        30.22F
ANDREWS        FAIR      89  60  36 S10G22    30.11F
ARTESIA        SUNNY     91  57  31 SE13G21   30.07F
BIG SPRING     MOSUNNY   90  61  37 SE12G17   30.11F
CARLSBAD       SUNNY     92  57  30 S10G21    30.05F
DRYDEN           N/A     93  65  39 VRB6      30.03F
FORT STOCKTON  SUNNY     92  59  33 SE9       30.06F
GUAD PASS        N/A    N/A N/A N/A MISG        N/A
HOBBS          MOSUNNY   88  54  31 SE10G17   30.12F
MARFA          SUNNY    N/A N/A N/A S14       30.20F
MIDLAND AIRPK  SUNNY     92  60  33 SE10G18   30.10S
MIDLAND INTL   SUNNY     91  62  37 S14G22    30.09F
ODESSA         MOSUNNY   90  62  39 S20       30.10F
PECOS          SUNNY     95  55  25 E9        30.03S
PRESIDIO       FAIR      93  59  32 CALM      30.04F
SEMINOLE       MOSUNNY   90  56  30 S12G17    30.12F
SNYDER           N/A     87  67  49 S6        30.10S
WINK           SUNNY     91  63  39 SE14      30.05F
$$
...OTHER STATIONS IN TEXAS...

CITY           SKY/WX    TMP DP  RH WIND       PRES   REMARKS
ABILENE        PTSUNNY   89  69  51 S6        30.08S
AMARILLO       CLOUDY    85  65  51 S12G22    30.14F
AUSTIN         MOSUNNY   89  72  56 S8        30.03F
BROWNSVILLE    SUNNY     95  70  44 S18       29.99F HX 101
CORPUS CHRISTI PTSUNNY   95  74  50 SE6       29.99F HX 105
DALLAS FTW     MOSUNNY   94  67  41 S7        30.03F
DEL RIO        SUNNY     95  66  38 S12       29.99F
EL PASO        CLOUDY    80  59  48 W10       30.14R
HOUSTON INT    PTSUNNY   89  74  60 SE8       30.04S
LUBBOCK        PTSUNNY   90  59  35 S9        30.11F
SAN ANGELO     MOSUNNY   91  70  49 VRB5      30.07S
SAN ANTONIO    PTSUNNY   89  71  55 SE8       30.04F
WACO           MOSUNNY   93  70  46 S8        30.04F
WICHITA FALLS  NOT AVBL
$$
...OTHER LOCATIONS IN NEW MEXICO...

CITY           SKY/WX    TMP DP  RH WIND       PRES   REMARKS
ALAMAGORDO     CLOUDY    84  55  37 S10G18    30.14S
ALBUQUERQUE    CLOUDY    81  51  35 SW18G24   30.17F
CANNON AFB     MOSUNNY   85  57  38 SE13      30.15F
CLOVIS         SUNNY     84  57  39 S15G21    30.16F
HOLLOMAN AFB   DRIZZLE   84  57  39 W16       30.12R
ROSWELL        SUNNY     93  53  25 S12G18    30.07F
RUIDOSO          N/A     81  48  32 SW16G23   30.30S
SANTA FE       CLOUDY    82  47  29 SE14G21   30.22F
TRUTH OR CONSE CLOUDY    70  61  73 W6        30.19S
TUCUMCARI      SUNNY     89  55  31 S18G25    30.10F
$$

USA.gov is the U.S. government's official web portal to all federal, state and local government web resources and services.